Simultaneous Nadir Overpasses (SNOs) Predictions

Prediction of SNOs between AQUA and GOES-15 Satellite Orbit:

Table of predicted SNOs for the next 14.0 days since TLE Epoch: 11/12/2022
Index Date Time (AQUA) AQUA Lat,Lon GOES-15 Lat,Lon Distance(km) Time Diff (sec)
1 11/12/2022 22:01:54 0.60,-125.08 -0.10,-128.30 366.37 80
2 11/13/2022 10:22:59 0.46,-130.19 0.08,-128.36 207.83 80
3 11/15/2022 10:10:06 -0.20,-127.05 0.08,-128.33 145.23 80
4 11/15/2022 22:31:19 -0.93,-132.19 -0.06,-128.24 449.46 80
5 11/17/2022 09:57:12 -0.83,-123.90 0.08,-128.29 498.27 80
6 11/17/2022 22:18:26 -0.23,-129.05 -0.06,-128.21 96.33 80
7 11/19/2022 22:05:32 0.43,-125.91 -0.06,-128.17 256.71 80
8 11/20/2022 10:26:36 0.67,-131.02 0.05,-128.23 317.03 80
9 11/22/2022 10:13:42 -0.04,-127.88 0.05,-128.19 35.61 80
10 11/24/2022 10:00:46 -0.65,-124.72 0.06,-128.13 387.38 80
11 11/24/2022 22:21:59 -0.44,-129.86 -0.04,-128.04 208.07 80
